Location: Zagreb
(45.8000°N, 16.0000°E)
Time: 02:36:55
(UTC+02:00)

Transit 2A Rocket - Pass Details

Date: 27 January 2022
Orbit: 592 x 909 km, 66.7° (Epoch: 26 May)

Event Time Altitude Azimuth Distance (km) Brightness Sun altitude
Rises 03:16:24 0° 325° (NW) 3,441 - -42.8°
Reaches altitude 10° 03:18:58 10° 323° (NW) 2,460 - -42.3°
Maximum altitude 03:24:36 70° 241° (WSW) 838 - -41.4°
Drops below altitude 10° 03:29:42 10° 159° (SSE) 2,233 - -40.5°
Sets 03:31:57 0° 157° (SSE) 3,101 - -40.2°
